| time (UTC) | temp C | wind direction | speed KPH | gust KPH | rain 1hr cm | rain 24hr cm | rain mn cm | humidity % | barometer mb |
| 20260507023148 | 12 | 200 | 0.0 | 1.6 | 0.00 | 0.00 | 0.00 | 63 | 1017.4 |
| 20260507022645 | 12 | 205 | 1.6 | 1.6 | 0.00 | 0.00 | 0.00 | 63 | 1017.4 |
| 20260507022141 | 12 | 203 | 0.0 | 0.0 | 0.00 | 0.00 | 0.00 | 62 | 1017.5 |
| 20260507021637 | 13 | 168 | 3.2 | 4.8 | 0.00 | 0.00 | 0.00 | 62 | 1017.4 |
| 20260507021132 | 13 | 163 | 3.2 | 3.2 | 0.00 | 0.00 | 0.00 | 61 | 1017.3 |
| 20260507020631 | 13 | 191 | 0.0 | 1.6 | 0.00 | 0.00 | 0.00 | 61 | 1017.3 |
| 20260507020127 | 13 | 144 | 3.2 | 4.8 | 0.00 | 0.00 | 0.00 | 61 | 1017.4 |
| 20260507015626 | 13 | 205 | 1.6 | 1.6 | 0.00 | 0.00 | 0.00 | 61 | 1017.3 |
| 20260507015122 | 13 | 204 | 1.6 | 3.2 | 0.00 | 0.00 | 0.00 | 60 | 1017.4 |
| 20260507014619 | 13 | 138 | 3.2 | 3.2 | 0.00 | 0.00 | 0.00 | 61 | 1017.0 |
| 20260507014115 | 14 | 278 | 3.2 | 4.8 | 0.00 | 0.00 | 0.00 | 62 | 1016.8 |
| 20260507013612 | 14 | 185 | 1.6 | 1.6 | 0.00 | 0.00 | 0.00 | 61 | 1016.8 |
| 20260507013109 | 14 | 205 | 1.6 | 1.6 | 0.00 | 0.00 | 0.00 | 61 | 1016.7 |
| 20260507012606 | 14 | 265 | 3.2 | 3.2 | 0.00 | 0.00 | 0.00 | 60 | 1016.8 |
| 20260507012102 | 15 | 189 | 1.6 | 3.2 | 0.00 | 0.00 | 0.00 | 60 | 1016.7 |
| 20260507011600 | 15 | 195 | 3.2 | 3.2 | 0.00 | 0.00 | 0.00 | 60 | 1016.9 |
| 20260507011056 | 15 | 247 | 3.2 | 3.2 | 0.00 | 0.00 | 0.00 | 59 | 1016.7 |
| 20260507010550 | 15 | 226 | 1.6 | 3.2 | 0.00 | 0.00 | 0.00 | 59 | 1016.8 |
| 20260507010047 | 15 | 202 | 1.6 | 1.6 | 0.00 | 0.00 | 0.00 | 59 | 1016.7 |
| 20260507005544 | 15 | 190 | 1.6 | 1.6 | 0.00 | 0.00 | 0.00 | 58 | 1016.7 |
| 20260507005040 | 15 | 240 | 1.6 | 3.2 | 0.00 | 0.00 | 0.00 | 58 | 1016.6 |
| 20260507004538 | 15 | 229 | 3.2 | 4.8 | 0.00 | 0.00 | 0.00 | 57 | 1016.6 |
| 20260507004035 | 15 | 157 | 3.2 | 4.8 | 0.00 | 0.00 | 0.00 | 57 | 1016.6 |
| 20260507003530 | 15 | 42 | 3.2 | 4.8 | 0.00 | 0.00 | 0.00 | 56 | 1016.6 |
| 20260507003020 | 15 | 197 | 0.0 | 0.0 | 0.00 | 0.00 | 0.00 | 56 | 1016.4 |
| 20260507002516 | 15 | 49 | 1.6 | 4.8 | 0.00 | 0.00 | 0.00 | 55 | 1016.3 |
| 20260507002012 | 16 | 227 | 1.6 | 1.6 | 0.00 | 0.00 | 0.00 | 55 | 1016.5 |
| 20260507001509 | 16 | 92 | 4.8 | 6.4 | 0.00 | 0.00 | 0.00 | 53 | 1016.2 |
| 20260507001001 | 16 | 201 | 4.8 | 6.4 | 0.00 | 0.00 | 0.00 | 53 | 1016.4 |
| 20260507000457 | 17 | 86 | 3.2 | 4.8 | 0.00 | 0.00 | 0.00 | 53 | 1016.2 |
| 20260506235952 | 17 | 359 | 6.4 | 9.7 | 0.00 | 0.00 | 0.00 | 51 | 1016.2 |
| 20260506235450 | 16 | 64 | 1.6 | 1.6 | 0.00 | 0.00 | 0.00 | 53 | 1016.1 |
| 20260506234946 | 16 | 104 | 1.6 | 6.4 | 0.00 | 0.00 | 0.00 | 53 | 1015.9 |
| 20260506234443 | 16 | 131 | 6.4 | 12.9 | 0.00 | 0.00 | 0.00 | 51 | 1016.0 |
| 20260506233941 | 17 | 75 | 8.0 | 11.3 | 0.00 | 0.00 | 0.00 | 51 | 1016.0 |
| 20260506233437 | 17 | 122 | 4.8 | 6.4 | 0.00 | 0.00 | 0.00 | 51 | 1016.0 |
| 20260506232934 | 17 | 110 | 9.7 | 12.9 | 0.00 | 0.00 | 0.00 | 51 | 1015.8 |
| 20260506232430 | 17 | 56 | 6.4 | 12.9 | 0.00 | 0.00 | 0.00 | 51 | 1015.8 |
| 20260506231926 | 17 | 211 | 4.8 | 9.7 | 0.00 | 0.00 | 0.00 | 51 | 1015.8 |
| 20260506231423 | 17 | 211 | 1.6 | 4.8 | 0.00 | 0.00 | 0.00 | 51 | 1015.9 |
| 20260506230921 | 16 | 225 | 1.6 | 1.6 | 0.00 | 0.00 | 0.00 | 53 | 1015.7 |
| 20260506230417 | 17 | 159 | 4.8 | 6.4 | 0.00 | 0.00 | 0.00 | 50 | 1015.7 |
| 20260506225914 | 17 | 108 | 6.4 | 9.7 | 0.00 | 0.00 | 0.00 | 51 | 1015.5 |
| 20260506225411 | 17 | 239 | 1.6 | 1.6 | 0.00 | 0.00 | 0.00 | 50 | 1015.7 |
| 20260506224908 | 17 | 54 | 6.4 | 11.3 | 0.00 | 0.00 | 0.00 | 50 | 1015.8 |
| 20260506224405 | 17 | 350 | 4.8 | 6.4 | 0.00 | 0.00 | 0.00 | 49 | 1015.4 |
| 20260506223901 | 17 | 207 | 4.8 | 9.7 | 0.00 | 0.00 | 0.00 | 50 | 1015.3 |
| 20260506223357 | 17 | 230 | 1.6 | 1.6 | 0.00 | 0.00 | 0.00 | 50 | 1015.4 |
| 20260506222854 | 17 | 40 | 9.7 | 14.5 | 0.00 | 0.00 | 0.00 | 49 | 1015.1 |
| 20260506222350 | 17 | 49 | 3.2 | 11.3 | 0.00 | 0.00 | 0.00 | 51 | 1015.1 |
| 20260506221848 | 18 | 51 | 6.4 | 11.3 | 0.00 | 0.00 | 0.00 | 48 | 1015.2 |
| 20260506221345 | 17 | 212 | 4.8 | 6.4 | 0.00 | 0.00 | 0.00 | 50 | 1015.1 |
| 20260506220842 | 17 | 91 | 8.0 | 11.3 | 0.00 | 0.00 | 0.00 | 51 | 1015.1 |
| 20260506220337 | 17 | 276 | 3.2 | 3.2 | 0.00 | 0.00 | 0.00 | 50 | 1015.1 |
| 20260506215834 | 17 | 231 | 4.8 | 6.4 | 0.00 | 0.00 | 0.00 | 52 | 1015.2 |
| 20260506215330 | 17 | 40 | 6.4 | 11.3 | 0.00 | 0.00 | 0.00 | 50 | 1015.2 |
| 20260506214821 | 17 | 93 | 3.2 | 4.8 | 0.00 | 0.00 | 0.00 | 51 | 1015.2 |
| 20260506214317 | 17 | 225 | 3.2 | 3.2 | 0.00 | 0.00 | 0.00 | 53 | 1015.3 |
| 20260506213816 | 17 | 20 | 4.8 | 6.4 | 0.00 | 0.00 | 0.00 | 51 | 1015.3 |
| 20260506213313 | 16 | 205 | 3.2 | 4.8 | 0.00 | 0.00 | 0.00 | 56 | 1015.7 |
| 20260506212810 | 16 | 340 | 9.7 | 12.9 | 0.00 | 0.00 | 0.00 | 55 | 1015.7 |
| 20260506212306 | 16 | 141 | 3.2 | 4.8 | 0.00 | 0.00 | 0.00 | 56 | 1015.6 |
| 20260506211800 | 17 | 153 | 4.8 | 6.4 | 0.00 | 0.00 | 0.00 | 54 | 1015.7 |
| 20260506211256 | 16 | 244 | 3.2 | 4.8 | 0.00 | 0.00 | 0.00 | 56 | 1015.6 |
| 20260506210754 | 16 | 198 | 1.6 | 1.6 | 0.00 | 0.00 | 0.00 | 56 | 1015.7 |
| 20260506210250 | 16 | 56 | 6.4 | 9.7 | 0.00 | 0.00 | 0.00 | 57 | 1015.8 |
| 20260506205748 | 16 | 189 | 6.4 | 9.7 | 0.00 | 0.00 | 0.00 | 55 | 1015.6 |
| 20260506205243 | 16 | 107 | 4.8 | 6.4 | 0.00 | 0.00 | 0.00 | 57 | 1015.9 |
| 20260506204740 | 16 | 75 | 11.3 | 12.9 | 0.00 | 0.00 | 0.00 | 57 | 1015.8 |
| 20260506204238 | 15 | 110 | 8.0 | 9.7 | 0.00 | 0.00 | 0.00 | 57 | 1015.7 |
| 20260506203736 | 15 | 207 | 0.0 | 1.6 | 0.00 | 0.00 | 0.00 | 58 | 1015.9 |
| 20260506203232 | 15 | 59 | 6.4 | 6.4 | 0.00 | 0.00 | 0.00 | 57 | 1015.9 |
| 20260506202730 | 16 | 181 | 4.8 | 4.8 | 0.00 | 0.00 | 0.00 | 57 | 1016.0 |
| 20260506202226 | 16 | 324 | 6.4 | 9.7 | 0.00 | 0.00 | 0.00 | 55 | 1015.8 |
| 20260506201723 | 16 | 226 | 8.0 | 11.3 | 0.00 | 0.00 | 0.00 | 56 | 1015.8 |
| 20260506201220 | 16 | 335 | 4.8 | 6.4 | 0.00 | 0.00 | 0.00 | 57 | 1016.0 |
| 20260506200718 | 15 | 28 | 6.4 | 6.4 | 0.00 | 0.00 | 0.00 | 57 | 1016.2 |
| 20260506200214 | 16 | 226 | 6.4 | 14.5 | 0.00 | 0.00 | 0.00 | 58 | 1016.0 |
| 20260506195710 | 16 | 111 | 3.2 | 4.8 | 0.00 | 0.00 | 0.00 | 57 | 1016.1 |
| 20260506195207 | 16 | 246 | 4.8 | 6.4 | 0.00 | 0.00 | 0.00 | 57 | 1016.1 |
| 20260506194659 | 16 | 345 | 4.8 | 4.8 | 0.00 | 0.00 | 0.00 | 57 | 1015.9 |
| 20260506194155 | 15 | 96 | 3.2 | 6.4 | 0.00 | 0.00 | 0.00 | 59 | 1016.0 |
| 20260506193653 | 15 | 334 | 6.4 | 9.7 | 0.00 | 0.00 | 0.00 | 57 | 1016.1 |
| 20260506193149 | 15 | 38 | 8.0 | 9.7 | 0.00 | 0.00 | 0.00 | 57 | 1016.0 |
| 20260506192645 | 16 | 38 | 14.5 | 17.7 | 0.00 | 0.00 | 0.00 | 56 | 1016.2 |
| 20260506192141 | 15 | 89 | 1.6 | 3.2 | 0.00 | 0.00 | 0.00 | 59 | 1016.3 |
| 20260506191634 | 15 | 244 | 3.2 | 3.2 | 0.00 | 0.00 | 0.00 | 58 | 1016.5 |
| 20260506191130 | 15 | 113 | 8.0 | 11.3 | 0.00 | 0.00 | 0.00 | 58 | 1016.4 |
| 20260506190627 | 15 | 66 | 9.7 | 14.5 | 0.00 | 0.00 | 0.00 | 57 | 1016.4 |
| 20260506190124 | 16 | 231 | 4.8 | 4.8 | 0.00 | 0.00 | 0.00 | 57 | 1016.4 |
| 20260506185621 | 16 | 188 | 3.2 | 4.8 | 0.00 | 0.00 | 0.00 | 56 | 1016.3 |
| 20260506185117 | 15 | 188 | 3.2 | 3.2 | 0.00 | 0.00 | 0.00 | 58 | 1016.5 |
| 20260506184614 | 16 | 119 | 6.4 | 9.7 | 0.00 | 0.00 | 0.00 | 55 | 1016.4 |
| 20260506184112 | 15 | 242 | 4.8 | 11.3 | 0.00 | 0.00 | 0.00 | 57 | 1016.5 |
| 20260506183608 | 15 | 188 | 3.2 | 3.2 | 0.00 | 0.00 | 0.00 | 56 | 1016.4 |
| 20260506183104 | 15 | 191 | 4.8 | 9.7 | 0.00 | 0.00 | 0.00 | 56 | 1016.7 |
| 20260506182602 | 15 | 301 | 3.2 | 4.8 | 0.00 | 0.00 | 0.00 | 56 | 1016.8 |
| 20260506182059 | 16 | 225 | 4.8 | 4.8 | 0.00 | 0.00 | 0.00 | 56 | 1016.5 |
| 20260506181557 | 16 | 73 | 6.4 | 11.3 | 0.00 | 0.00 | 0.00 | 54 | 1016.7 |
| 20260506181053 | 15 | 47 | 4.8 | 6.4 | 0.00 | 0.00 | 0.00 | 57 | 1016.8 |
| 20260506180550 | 15 | 127 | 6.4 | 6.4 | 0.00 | 0.00 | 0.00 | 58 | 1016.7 |
| 20260506180047 | 15 | 178 | 6.4 | 6.4 | 0.00 | 0.00 | 0.00 | 58 | 1016.9 |
| 20260506175543 | 15 | 55 | 8.0 | 17.7 | 0.00 | 0.00 | 0.00 | 58 | 1017.3 |
| 20260506175039 | 15 | 146 | 4.8 | 4.8 | 0.00 | 0.00 | 0.00 | 56 | 1017.2 |
| 20260506174538 | 15 | 82 | 9.7 | 16.1 | 0.00 | 0.00 | 0.00 | 56 | 1017.3 |
| 20260506174033 | 15 | 47 | 8.0 | 11.3 | 0.00 | 0.00 | 0.00 | 56 | 1017.0 |
| 20260506173531 | 16 | 181 | 11.3 | 17.7 | 0.00 | 0.00 | 0.00 | 54 | 1017.3 |
| 20260506173023 | 15 | 81 | 9.7 | 16.1 | 0.00 | 0.00 | 0.00 | 54 | 1016.9 |
| 20260506172520 | 15 | 199 | 3.2 | 6.4 | 0.00 | 0.00 | 0.00 | 55 | 1016.9 |
| 20260506172016 | 15 | 114 | 6.4 | 9.7 | 0.00 | 0.00 | 0.00 | 56 | 1017.2 |
| 20260506171513 | 15 | 133 | 8.0 | 14.5 | 0.00 | 0.00 | 0.00 | 55 | 1016.9 |
| 20260506171010 | 15 | 128 | 11.3 | 20.9 | 0.00 | 0.00 | 0.00 | 55 | 1016.9 |
| 20260506170507 | 14 | 203 | 9.7 | 17.7 | 0.00 | 0.00 | 0.00 | 57 | 1016.9 |
| 20260506170000 | 14 | 58 | 11.3 | 14.5 | 0.00 | 0.00 | 0.00 | 58 | 1016.9 |
| 20260506165458 | 15 | 50 | 16.1 | 22.5 | 0.00 | 0.00 | 0.00 | 57 | 1017.0 |
| 20260506164948 | 15 | 155 | 8.0 | 12.9 | 0.00 | 0.00 | 0.00 | 58 | 1017.5 |
| 20260506164445 | 14 | 215 | 6.4 | 11.3 | 0.00 | 0.00 | 0.00 | 60 | 1017.2 |
| 20260506163943 | 13 | 40 | 9.7 | 14.5 | 0.00 | 0.00 | 0.00 | 59 | 1017.4 |
| 20260506163438 | 13 | 66 | 14.5 | 16.1 | 0.00 | 0.00 | 0.00 | 60 | 1017.6 |
| 20260506162932 | 14 | 263 | 9.7 | 14.5 | 0.00 | 0.00 | 0.00 | 60 | 1017.5 |
| 20260506162430 | 14 | 94 | 12.9 | 17.7 | 0.00 | 0.00 | 0.00 | 58 | 1017.6 |
| 20260506161922 | 14 | 144 | 14.5 | 22.5 | 0.00 | 0.00 | 0.00 | 61 | 1017.4 |
| 20260506161420 | 14 | 111 | 9.7 | 12.9 | 0.00 | 0.00 | 0.00 | 61 | 1017.7 |
| 20260506160917 | 12 | 88 | 8.0 | 11.3 | 0.00 | 0.00 | 0.00 | 63 | 1017.6 |
| 20260506160414 | 13 | 86 | 14.5 | 17.7 | 0.00 | 0.00 | 0.00 | 63 | 1017.3 |
| 20260506155912 | 12 | 128 | 14.5 | 20.9 | 0.00 | 0.00 | 0.00 | 64 | 1017.2 |
| 20260506155408 | 12 | 78 | 4.8 | 6.4 | 0.00 | 0.00 | 0.00 | 66 | 1017.5 |
| 20260506153525 | 11 | 115 | 8.0 | 12.9 | 0.00 | 0.00 | 0.00 | 71 | 1016.9 |
| 20260506153022 | 11 | 91 | 11.3 | 16.1 | 0.00 | 0.00 | 0.00 | 71 | 1017.0 |
| 20260506152519 | 11 | 77 | 12.9 | 14.5 | 0.00 | 0.00 | 0.00 | 72 | 1017.2 |
| 20260506152017 | 11 | 86 | 17.7 | 22.5 | 0.00 | 0.00 | 0.00 | 73 | 1016.9 |
| 20260506151514 | 11 | 342 | 9.7 | 12.9 | 0.00 | 0.00 | 0.00 | 73 | 1017.2 |
| 20260506151012 | 11 | 154 | 4.8 | 6.4 | 0.00 | 0.00 | 0.00 | 74 | 1017.2 |
| 20260506150508 | 10 | 202 | 1.6 | 3.2 | 0.00 | 0.00 | 0.00 | 77 | 1017.2 |
| 20260506150005 | 10 | 78 | 8.0 | 9.7 | 0.00 | 0.00 | 0.00 | 77 | 1016.9 |
| 20260506145501 | 10 | 236 | 8.0 | 12.9 | 0.00 | 0.00 | 0.00 | 77 | 1016.6 |
| 20260506144959 | 10 | 133 | 3.2 | 4.8 | 0.00 | 0.00 | 0.00 | 78 | 1016.7 |
| 20260506144455 | 10 | 52 | 6.4 | 9.7 | 0.00 | 0.00 | 0.00 | 78 | 1016.7 |
| 20260506143953 | 10 | 241 | 3.2 | 4.8 | 0.00 | 0.00 | 0.00 | 79 | 1016.3 |
| 20260506143450 | 10 | 59 | 4.8 | 11.3 | 0.00 | 0.00 | 0.00 | 80 | 1016.2 |
| 20260506142949 | 10 | 108 | 9.7 | 16.1 | 0.00 | 0.00 | 0.00 | 80 | 1016.3 |
| 20260506142446 | 10 | 103 | 9.7 | 16.1 | 0.00 | 0.00 | 0.00 | 80 | 1016.4 |
| 20260506141944 | 10 | 236 | 4.8 | 6.4 | 0.00 | 0.00 | 0.00 | 81 | 1016.3 |
| 20260506141442 | 9 | 321 | 4.8 | 4.8 | 0.00 | 0.00 | 0.00 | 81 | 1016.2 |
| 20260506140940 | 9 | 76 | 9.7 | 11.3 | 0.00 | 0.00 | 0.00 | 81 | 1016.3 |
| 20260506140436 | 9 | 274 | 3.2 | 4.8 | 0.00 | 0.00 | 0.00 | 82 | 1016.6 |
| 20260506135933 | 9 | 64 | 8.0 | 11.3 | 0.00 | 0.00 | 0.00 | 81 | 1016.4 |
| 20260506135431 | 9 | 58 | 9.7 | 14.5 | 0.00 | 0.00 | 0.00 | 82 | 1016.8 |
| 20260506134927 | 8 | 203 | 6.4 | 9.7 | 0.00 | 0.00 | 0.00 | 83 | 1016.7 |
| 20260506134423 | 8 | 329 | 14.5 | 17.7 | 0.00 | 0.00 | 0.00 | 83 | 1016.5 |
| 20260506133920 | 8 | 29 | 6.4 | 12.9 | 0.00 | 0.00 | 0.00 | 84 | 1016.8 |
| 20260506133417 | 8 | 29 | 11.3 | 17.7 | 0.00 | 0.00 | 0.00 | 83 | 1016.5 |
| 20260506132914 | 8 | 324 | 11.3 | 16.1 | 0.00 | 0.00 | 0.00 | 83 | 1016.4 |
| 20260506132411 | 8 | 210 | 1.6 | 3.2 | 0.00 | 0.00 | 0.00 | 84 | 1016.5 |
| 20260506131908 | 8 | 167 | 3.2 | 4.8 | 0.00 | 0.00 | 0.00 | 85 | 1016.4 |
| 20260506131404 | 8 | 298 | 3.2 | 4.8 | 0.00 | 0.00 | 0.00 | 85 | 1016.2 |
| 20260506130902 | 8 | 72 | 8.0 | 12.9 | 0.00 | 0.00 | 0.00 | 84 | 1016.4 |
| 20260506130358 | 8 | 228 | 3.2 | 3.2 | 0.00 | 0.00 | 0.00 | 85 | 1016.1 |
| 20260506125856 | 8 | 261 | 6.4 | 11.3 | 0.00 | 0.00 | 0.00 | 85 | 1016.0 |
| 20260506125354 | 8 | 88 | 6.4 | 6.4 | 0.00 | 0.00 | 0.00 | 86 | 1016.4 |
| 20260506124852 | 8 | 82 | 9.7 | 16.1 | 0.00 | 0.00 | 0.00 | 86 | 1016.4 |
| 20260506124349 | 8 | 270 | 8.0 | 11.3 | 0.00 | 0.00 | 0.00 | 86 | 1016.1 |
| 20260506123847 | 8 | 324 | 6.4 | 11.3 | 0.00 | 0.00 | 0.00 | 87 | 1016.1 |
| 20260506123345 | 8 | 247 | 3.2 | 3.2 | 0.00 | 0.00 | 0.00 | 87 | 1016.0 |
| 20260506122842 | 8 | 225 | 1.6 | 3.2 | 0.00 | 0.00 | 0.00 | 87 | 1015.8 |
| 20260506122338 | 8 | 152 | 11.3 | 16.1 | 0.00 | 0.00 | 0.00 | 87 | 1015.7 |
| 20260506121837 | 8 | 25 | 6.4 | 9.7 | 0.00 | 0.00 | 0.00 | 87 | 1015.8 |
| 20260506121333 | 8 | 80 | 8.0 | 11.3 | 0.00 | 0.00 | 0.00 | 87 | 1015.7 |
| 20260506120831 | 8 | 231 | 3.2 | 4.8 | 0.00 | 0.00 | 0.00 | 86 | 1015.4 |
| 20260506120329 | 8 | 225 | 3.2 | 6.4 | 0.00 | 0.00 | 0.00 | 86 | 1015.4 |
| 20260506115825 | 8 | 9 | 8.0 | 11.3 | 0.00 | 0.00 | 0.00 | 86 | 1015.6 |
| 20260506115324 | 8 | 271 | 4.8 | 6.4 | 0.00 | 0.00 | 0.00 | 86 | 1015.5 |
| 20260506114821 | 8 | 346 | 3.2 | 4.8 | 0.00 | 0.00 | 0.00 | 86 | 1015.5 |
| 20260506114319 | 7 | 21 | 3.2 | 4.8 | 0.00 | 0.00 | 0.00 | 86 | 1015.4 |
| 20260506113817 | 7 | 222 | 3.2 | 6.4 | 0.00 | 0.00 | 0.00 | 86 | 1015.1 |
| 20260506113315 | 7 | 71 | 4.8 | 6.4 | 0.00 | 0.00 | 0.00 | 86 | 1015.0 |
| 20260506112811 | 8 | 266 | 4.8 | 6.4 | 0.00 | 0.00 | 0.00 | 85 | 1014.9 |
| 20260506112309 | 8 | 345 | 4.8 | 6.4 | 0.00 | 0.00 | 0.00 | 85 | 1014.8 |
| 20260506111806 | 8 | 80 | 6.4 | 6.4 | 0.00 | 0.00 | 0.00 | 85 | 1014.8 |
| 20260506111304 | 8 | 59 | 9.7 | 11.3 | 0.00 | 0.00 | 0.00 | 85 | 1014.7 |
| 20260506110801 | 8 | 44 | 4.8 | 4.8 | 0.00 | 0.00 | 0.00 | 85 | 1014.8 |
| 20260506110258 | 8 | 202 | 1.6 | 3.2 | 0.00 | 0.00 | 0.00 | 85 | 1014.9 |
| 20260506105754 | 8 | 67 | 8.0 | 11.3 | 0.00 | 0.00 | 0.00 | 85 | 1015.2 |
| 20260506105251 | 8 | 345 | 3.2 | 6.4 | 0.00 | 0.00 | 0.00 | 84 | 1015.5 |
| 20260506104749 | 8 | 83 | 3.2 | 4.8 | 0.00 | 0.00 | 0.00 | 84 | 1015.3 |
| 20260506104246 | 8 | 308 | 6.4 | 11.3 | 0.00 | 0.00 | 0.00 | 84 | 1015.3 |
| 20260506103744 | 8 | 353 | 6.4 | 6.4 | 0.00 | 0.00 | 0.00 | 84 | 1015.4 |
| 20260506103241 | 8 | 231 | 3.2 | 3.2 | 0.00 | 0.00 | 0.00 | 84 | 1015.3 |
| 20260506102738 | 8 | 51 | 4.8 | 6.4 | 0.00 | 0.00 | 0.00 | 84 | 1015.3 |
| 20260506102236 | 8 | 201 | 1.6 | 1.6 | 0.00 | 0.00 | 0.00 | 84 | 1015.0 |
| 20260506101733 | 8 | 225 | 3.2 | 3.2 | 0.00 | 0.00 | 0.00 | 84 | 1015.3 |
| 20260506101229 | 8 | 233 | 4.8 | 4.8 | 0.00 | 0.00 | 0.00 | 83 | 1015.5 |
| 20260506100727 | 8 | 230 | 0.0 | 1.6 | 0.00 | 0.00 | 0.00 | 84 | 1015.4 |
| 20260506100225 | 8 | 251 | 3.2 | 3.2 | 0.00 | 0.00 | 0.00 | 83 | 1015.2 |
| 20260506095724 | 8 | 231 | 1.6 | 3.2 | 0.00 | 0.00 | 0.00 | 83 | 1015.2 |
| 20260506095220 | 8 | 152 | 4.8 | 6.4 | 0.00 | 0.00 | 0.00 | 82 | 1015.4 |
| 20260506094717 | 8 | 148 | 6.4 | 11.3 | 0.00 | 0.00 | 0.00 | 82 | 1015.0 |
| 20260506094215 | 8 | 52 | 6.4 | 9.7 | 0.00 | 0.00 | 0.00 | 82 | 1014.7 |
| 20260506093714 | 8 | 227 | 1.6 | 3.2 | 0.00 | 0.00 | 0.00 | 82 | 1014.7 |
| 20260506093210 | 8 | 329 | 6.4 | 6.4 | 0.00 | 0.00 | 0.00 | 82 | 1014.4 |
| 20260506092708 | 8 | 237 | 3.2 | 3.2 | 0.00 | 0.00 | 0.00 | 82 | 1014.4 |
| 20260506092205 | 8 | 45 | 1.6 | 3.2 | 0.00 | 0.00 | 0.00 | 82 | 1014.2 |
| 20260506091703 | 8 | 337 | 4.8 | 4.8 | 0.00 | 0.00 | 0.00 | 81 | 1014.2 |
| 20260506091200 | 8 | 45 | 3.2 | 3.2 | 0.00 | 0.00 | 0.00 | 81 | 1014.5 |
| 20260506090658 | 8 | 230 | 4.8 | 4.8 | 0.00 | 0.00 | 0.00 | 81 | 1014.3 |
| 20260506090154 | 8 | 122 | 1.6 | 3.2 | 0.00 | 0.00 | 0.00 | 81 | 1013.9 |
| 20260506085651 | 8 | 225 | 3.2 | 4.8 | 0.00 | 0.00 | 0.00 | 80 | 1013.8 |
| 20260506085147 | 8 | 93 | 8.0 | 11.3 | 0.00 | 0.00 | 0.00 | 81 | 1014.2 |
| 20260506084644 | 8 | 342 | 3.2 | 3.2 | 0.00 | 0.00 | 0.00 | 80 | 1013.8 |
| 20260506084141 | 8 | 25 | 8.0 | 12.9 | 0.00 | 0.00 | 0.00 | 80 | 1013.9 |
| 20260506083638 | 8 | 22 | 6.4 | 9.7 | 0.00 | 0.00 | 0.00 | 80 | 1013.9 |
| 20260506083136 | 8 | 41 | 6.4 | 14.5 | 0.00 | 0.00 | 0.00 | 80 | 1013.7 |
| 20260506082632 | 8 | 81 | 9.7 | 11.3 | 0.00 | 0.00 | 0.00 | 80 | 1013.6 |
| 20260506082128 | 8 | 45 | 6.4 | 9.7 | 0.00 | 0.00 | 0.00 | 81 | 1013.3 |
| 20260506081626 | 8 | 216 | 4.8 | 6.4 | 0.00 | 0.00 | 0.00 | 81 | 1013.2 |
| 20260506081124 | 8 | 237 | 6.4 | 9.7 | 0.00 | 0.00 | 0.00 | 81 | 1013.0 |
| 20260506080621 | 8 | 40 | 4.8 | 6.4 | 0.00 | 0.00 | 0.00 | 81 | 1013.0 |
| 20260506080117 | 8 | 13 | 9.7 | 11.3 | 0.00 | 0.00 | 0.00 | 81 | 1012.9 |
| 20260506073101 | 8 | 129 | 3.2 | 4.8 | 0.00 | 0.00 | 0.00 | 81 | 1012.6 |
| 20260506072558 | 8 | 92 | 4.8 | 6.4 | 0.00 | 0.00 | 0.00 | 80 | 1012.7 |
| 20260506072056 | 8 | 31 | 4.8 | 6.4 | 0.00 | 0.00 | 0.00 | 80 | 1012.6 |
| 20260506071553 | 8 | 80 | 4.8 | 4.8 | 0.00 | 0.00 | 0.00 | 80 | 1012.5 |
| 20260506071051 | 8 | 305 | 6.4 | 9.7 | 0.00 | 0.00 | 0.00 | 79 | 1012.6 |
| 20260506070548 | 8 | 76 | 9.7 | 14.5 | 0.00 | 0.00 | 0.00 | 79 | 1012.5 |
| 20260506062022 | 8 | 238 | 3.2 | 3.2 | 0.00 | 0.00 | 0.00 | 77 | 1013.1 |
| 20260506061518 | 8 | 33 | 6.4 | 9.7 | 0.00 | 0.00 | 0.00 | 77 | 1012.8 |
| 20260506061016 | 8 | 203 | 3.2 | 3.2 | 0.00 | 0.00 | 0.00 | 77 | 1012.8 |
| 20260506060514 | 8 | 242 | 4.8 | 4.8 | 0.00 | 0.00 | 0.00 | 77 | 1012.7 |
| 20260506050943 | 8 | 16 | 8.0 | 12.9 | 0.00 | 0.00 | 0.00 | 79 | 1012.5 |
| 20260506050440 | 8 | 96 | 6.4 | 9.7 | 0.00 | 0.00 | 0.00 | 79 | 1012.4 |
| 20260506044930 | 8 | 136 | 8.0 | 11.3 | 0.00 | 0.00 | 0.00 | 80 | 1012.8 |
| 20260506044429 | 8 | 57 | 6.4 | 9.7 | 0.00 | 0.00 | 0.00 | 80 | 1012.8 |
| 20260506043925 | 8 | 111 | 3.2 | 4.8 | 0.00 | 0.00 | 0.00 | 82 | 1012.8 |
| 20260506043423 | 8 | 183 | 4.8 | 6.4 | 0.00 | 0.00 | 0.00 | 82 | 1012.7 |
| 20260506042920 | 8 | 229 | 3.2 | 4.8 | 0.00 | 0.00 | 0.00 | 82 | 1012.8 |
| 20260506042420 | 8 | 38 | 8.0 | 11.3 | 0.00 | 0.00 | 0.00 | 83 | 1012.6 |
| 20260506041918 | 8 | 145 | 3.2 | 3.2 | 0.00 | 0.00 | 0.00 | 83 | 1012.6 |
| 20260506041415 | 8 | 33 | 6.4 | 6.4 | 0.00 | 0.00 | 0.00 | 83 | 1012.6 |
| 20260506040912 | 8 | 81 | 8.0 | 11.3 | 0.00 | 0.00 | 0.00 | 83 | 1012.7 |
| 20260506040409 | 8 | 107 | 4.8 | 6.4 | 0.00 | 0.00 | 0.00 | 84 | 1012.8 |
| 20260506035905 | 8 | 30 | 4.8 | 11.3 | 0.00 | 0.00 | 0.00 | 84 | 1012.8 |
| 20260506035403 | 8 | 215 | 1.6 | 1.6 | 0.00 | 0.00 | 0.00 | 84 | 1012.7 |
| 20260506034859 | 8 | 341 | 4.8 | 9.7 | 0.00 | 0.00 | 0.00 | 85 | 1012.8 |
| 20260506034358 | 8 | 52 | 9.7 | 11.3 | 0.00 | 0.00 | 0.00 | 84 | 1012.6 |
| 20260506033854 | 8 | 66 | 4.8 | 9.7 | 0.00 | 0.00 | 0.00 | 85 | 1012.7 |
| 20260506033351 | 8 | 92 | 17.7 | 22.5 | 0.00 | 0.00 | 0.00 | 85 | 1012.2 |
| 20260506032848 | 8 | 252 | 8.0 | 12.9 | 0.00 | 0.00 | 0.00 | 85 | 1012.3 |
| 20260506032344 | 8 | 181 | 3.2 | 4.8 | 0.00 | 0.00 | 0.00 | 86 | 1012.0 |
| 20260506031841 | 8 | 199 | 4.8 | 6.4 | 0.00 | 0.00 | 0.00 | 86 | 1011.9 |
| 20260506031339 | 8 | 280 | 11.3 | 20.9 | 0.00 | 0.00 | 0.00 | 87 | 1011.6 |
| 20260506030836 | 8 | 37 | 9.7 | 12.9 | 0.00 | 0.00 | 0.00 | 87 | 1011.3 |
| 20260506030334 | 8 | 299 | 11.3 | 16.1 | 0.00 | 0.00 | 0.00 | 87 | 1011.7 |
| 20260506025831 | 8 | 77 | 6.4 | 11.3 | 0.00 | 0.00 | 0.00 | 88 | 1011.8 |
| 20260506025327 | 8 | 76 | 14.5 | 20.9 | 0.00 | 0.00 | 0.00 | 89 | 1011.8 |
| 20260506024824 | 8 | 60 | 6.4 | 9.7 | 0.00 | 0.00 | 0.00 | 90 | 1012.1 |
| 20260506024321 | 8 | 5 | 9.7 | 14.5 | 0.00 | 0.00 | 0.00 | 90 | 1011.7 |
| 20260506023817 | 8 | 52 | 11.3 | 12.9 | 0.00 | 0.00 | 0.00 | 90 | 1011.7 |
| 20260506023314 | 8 | 8 | 8.0 | 12.9 | 0.00 | 0.00 | 0.00 | 90 | 1011.8 |